Location: Bachas
(43.2439°N, 0.9375°E)
Time: 16:50:32
(UTC+00:00)

SKYMED 2 - Pass Details

Date: 18 February 2020
Orbit: 621 x 623 km, 97.9° (Epoch: 07 April)

Event Time Altitude Azimuth Distance (km) Brightness Sun altitude
Rises 05:03:40 0° 164° (SSE) 2,890 7.2 -20.2°
Reaches altitude 10° 05:05:51 10° 164° (SSE) 1,988 6.3 -19.8°
Maximum altitude 05:10:11 86° 77° (ENE) 632 3.5 -19.0°
Drops below altitude 10° 05:14:33 10° 348° (NNW) 2,005 6.1 -18.2°
Sets 05:16:45 0° 348° (NNW) 2,916 6.9 -17.8°
